Погода в Баргузине

Поиск расширенной информации на нашем сайте:

Полезная информация:

Новости сайта



02.01.2020
Опубликован Долгосрочный прогноз погоды по городам России и ближнего зарубежья на январь 2020 года.
Карты: Прогноз на январь и февраль 2020 года, Сравнение прогнозируемой аномалии приземной температуры воздуха на январь 2020 года по разным моделям.




Погода в Баргузине - сегодня

Время (UTC), дата Ветер
(°,м/с) 
Видим.   Явления Облачность Т
(°С)
Тd
(°С)
f(%) Тe
(°С)
Pmin
(гПа)
dP
(гПа)
Po
(мм)
O2
(г/м3)
Тmin Tmax R s Состояние
почвы
00 30.11.20 тихо ()   н/о  слаб. ливневой снег  10/4 600 м кучево-дожд., средняя, верхняя 
[Cb cap|Ac trans|Ci fib]
-20.5 -22.7 83 -21  1041.9  732  320  -21.1    0.5  27  равномерный
сухой снег
100% 
03 30.11.20 тихо ()   10 км  слаб. ливневой снег  10/8 600 м кучево-дожд., средняя 
[Cb cap|Ac trans]
-17.3 -19.4 84 -17  1041.4  0.3  732  316           
06 30.11.20 тихо ()   10 км  слаб. ливневой снег  10/6 600 м кучево-дожд., верхняя 
[Cb cap|Ci fib]
-15.4 -17.9 81 -15  1039.8  -1  731  314           
09 30.11.20 тихо ()   н/о  слаб. ливневой снег  10/6 600 м кучево-дожд., верхняя 
[Cb cap|Ci fib]
-16.3 -18.3 84 -16  1040  -0.1  731  315           
12 30.11.20 тихо ()   н/о  {ливн. осадки}  10/0 средняя, верхняя 
[Ac As|Ci fib]
-17.5 -19.4 85 -18  1040.3  731  316    -14.7  0.7     
15 30.11.20 тихо ()   н/о  ливневой снег  10/10 600 м кучево-дожд. 
[Cb cap]
-16.5 -18.4 85 -17  1039.6  -0.4  731  315           
18 30.11.20 тихо ()   н/о  {ливн. осадки}  10/10 600 м кучево-дожд. 
[Cb cap]
-16.4 -18.3 85 -16  1038.9  -0.6  730  315           
21 30.11.20 тихо ()   н/о  слаб. ливневой снег  10/8 600 м кучево-дожд., верхняя 
[Cb cap|Ci fib]
-16.7 -18.6 85 -17  1038.9  730  315           
00 01.12.20 тихо ()   н/о  слаб. ливневой снег  10/9 600 м кучево-дожд., верхняя 
[Cb cap|Ci fib]
-17.2 -19.1 85 -17  1039.3  0.2  731  316  -17.5    36  равномерный
сухой снег
100% 
03 01.12.20 тихо ()   20000 м  в посл. час ливневой снег  10/8 600 м кучево-дожд., средняя 
[Cb cap|Ac trans]
-15.8 -18.3 81 -16  1038.9  731  314           
06 01.12.20 060 (СВ) 20000 м  {ливн. осадки}  10/3 600 м кучево-дожд., средняя, верхняя 
[Cb cap|Ac trans|Ci fib]
-15.3 -18.5 76 -15  1038.2  -0.5  730  313           
09 01.12.20 тихо ()   н/о  {ливн. осадки}  10/3 600 м кучево-дожд., средняя, верхняя 
[Cb cap|Ac trans|Ci fib]
-17.5 -19.7 83 -18  1039.1  0.3  730  316           
12 01.12.20 тихо ()   н/о  {ливн. осадки}  10/0 средняя, верхняя 
[Ac trans|Ci fib]
-18.6 -20.6 84 -19  1039.9  0.4  731  317    -14.9  0.4     
15 01.12.20 020 (С) н/о    10/0 средняя 
[As trans]
-19 -21 84 -19  1040.1  0.1  731  318           
18 01.12.20 тихо ()   н/о  слаб. ливневой снег  10/8 600 м кучево-дожд., средняя 
[Cb cap|Ac trans]
-18 -19.9 85 -18  1040.3  0.5  731  317           
21 01.12.20 060 (СВ) н/о  слаб. ливневой снег  10/6 600 м кучево-дожд., средняя 
[Cb cap|Ac trans]
-18.2 -20.2 84 -18  1040.5  0.1  731  317           
00 02.12.20 090 (В) н/о  слаб. ливневой снег  10/6 600 м кучево-дожд., средняя, верхняя 
[Cb cap|Ac trans|Ci fib]
-19.6 -21.5 85 -20  1042.4  0.8  732  319  -19.6    0.3  33  равномерный
сухой снег
100% 
03 02.12.20 тихо ()   10 км  слаб. ливневой снег  10/8 600 м кучево-дожд., средняя, верхняя 
[Cb cap|Ac trans|Ci fib]
-16.7 -18.9 83 -17  1042.4  1.3  733  316  -19.9         
06 02.12.20 тихо ()   10 км  слаб. ливневой снег  10/8 600 м кучево-дожд., верхняя 
[Cb cap|Ci fib]
-13.9 -16.6 80 -14  1041.4  -0.3  733  312           
09 02.12.20 тихо ()   н/о  слаб. ливневой снег  10/9 600 м кучево-дожд., верхняя 
[Cb cap|Ci fib]
-14.4 -16.3 85 -14  1042.2  0.6  733  313           
12 02.12.20 тихо ()   н/о  слаб. ливневой снег  10/10 600 м кучево-дожд. 
[Cb cap]
-14.6 -16.3 87 -15  1042.5  0.3  733  313    -13.5     
15 02.12.20 070 (В) н/о  слаб. ливневой снег  10/10 600 м кучево-дожд. 
[Cb cap]
-15 -16.7 87 -15  1041.4  -1.1  732  314           
18 02.12.20 290 (З) н/о  слаб. ливневой снег  10/10 600 м кучево-дожд. 
[Cb cap]
-8.3 -9.4 92 -8  1038.4  -1.2  732  305           
21 02.12.20 240 (ЮЗ) н/о  слаб. ливневой снег  10/10 600 м кучево-дожд. 
[Cb cap]
-7.7 -8.6 93 -9  1036.9  -1.3  731  304           
00 03.12.20 220 (ЮЗ) н/о  слаб. ливневой снег  10/10 600 м кучево-дожд. 
[Cb cap]
-8.1 -9.7 88 -11  1036.2  -0.8  730  304  -15.2    41  равномерный
сухой снег
100% 
Время (UTC), дата Ветер
(°,м/с) 
Видим.   Явления Облачность Т
(°С)
Тd
(°С)
f(%) Тe
(°С)
Pmin
(гПа)
dP
(гПа)
Po
(мм)
O2
(г/м3)
Тmin Tmax R s Состояние
почвы

Для получения пояснительной информации подведите курсор к названию столбца.

ПОГОДА в Баргузине - архив

Всё, что Вы хотите узнать о погоде в Баргузине - удобно и подробно!

Выберите нужную дату (начиная с 1 января 2019* года) и нажмите кнопку "Найти".
Будут отображены архивные сводки погоды по пункту Баргузин, начиная с указанной даты.


Отображать данные в формате CSV (для использования в таблицах Excel)


Внимание! Наш архив погоды предназначен исключительно для личного некоммерческого использования в познавательных целях. Если Вам необходимы официальные справки о состоянии погоды (для производственных, юридических, коммерческих и т.п. целей), обращайтесь в органы Росгидромета.

*Примечание: данная дата относится к архиву по метеостанциям СССР (Россия, СНГ, Балтия).
Архив по метеостанциям Зарубежной Европы и Азии (кроме Китая) хранится 10 дней, по другим регионам земного шара (Китай, Африка, Америка, Австралия, Океания) - 1 день.

Баргузин - район местоположения метеостанции


Название, широта, долгота, высота метеостанции:
Баргузин 53.6°ш. 109.6°д. 489 м над ур. моря [Российская Федерация]

Дополнительная информация

В oтличие oт бoльшинства пoгoдных сайтoв мы публикуем пoдрoбную метеoинфoрмацию в детальнoм прoфессиoнальнoм фoрмате.

Характеристики температуры и влажнoсти вoздуха измеряются на высoте 2 м в тени вдали oт зданий и деревьев.
Скoрoсть ветра измеряется на высoте 10 м (на урoвне рoста челoвека скoрoсть ветра ниже в 1.5-2 раза). Если метеoстанция нахoдится в гoрoде или в лесу, тo скoрoсть ветра занижена на 2-4 м/с пo сравнению с oткрытым местoм. Скoрoсть ветра над акватoриями крупных рек и oзёр, а также на вершинах хoлмoв на 2-5 м/с выше, чем в oбычных услoвиях.
Атмoсфернoе давление в разных тoчках местнoсти мoжет значительнo oтличаться oт давления на метеoстанции, в зависимoсти oт услoвий рельефа (при пoдъёме на 10 м давление пoнижается примернo на 1 мм рт.ст.).